This demonstration page uses our WeatherBlox Daily Observations layout. Learn more.

Left ArrowRight Arrow

Hourly Observations for March 24, 2020

Temp ( °F °C ) Dew Point ( °F °C ) Humidity (%) Winds ( mph kmh ) Pressure ( in mb ) Visibility ( mi km ) Precip ( " mm )
12:53 am 00:53 Clear 37 2.8 34 1.1 89 89 N N/A 30.19 1023 8 12.87472 N/A
1:53 am 01:53 Clear 34 1.1 31 -0.6 89 89 N N/A 30.19 1022 8 12.87472 N/A
2:53 am 02:53 Clear 34 1.1 31 -0.6 89 89 N N/A 30.19 1022 7 11.26538 N/A
3:53 am 03:53 Clear with Mist and Fog 33 0.6 30 -1.1 89 89 N N/A 30.19 1022 4 6.43736 N/A
4:53 am 04:53 Clear with Mist and Fog 32 undefined 30 -1.1 92 92 N N/A 30.18 1022 5 8.0467 N/A
5:53 am 05:53 Clear with Mist and Fog 34 1.1 32 undefined 92 92 ENE 3 6 30.16 1021 5 8.0467 N/A
6:53 am 06:53 Clear with Mist and Fog 35 1.7 33 0.6 93 93 N N/A 30.18 1022 6 9.65604 N/A
7:53 am 07:53 Sunny 37 2.8 34 1.1 89 89 N N/A 30.2 1023 7 11.26538 N/A
8:53 am 08:53 Sunny 40 4.4 35 1.7 83 83 E 5 7 30.18 1022 8 12.87472 N/A
9:53 am 09:53 Sunny 42 5.6 36 2.2 79 79 E 12 19 30.14 1021 10 16.0934 N/A
10:53 am 10:53 Mostly Sunny 45 7.2 37 2.8 74 74 SE 5 7 30.13 1020 10 16.0934 N/A
11:53 am 11:53 Cloudy 47 8.3 38 3.3 71 71 E 7 11 30.11 1020 10 16.0934 N/A
12:53 pm 12:53 Sunny 50 10 39 3.9 66 66 E 9 15 30.07 1018 10 16.0934 N/A
1:53 pm 13:53 Mostly Cloudy 51 10.6 40 4.4 66 66 VRB 6 9 30.06 1018 10 16.0934 N/A
2:53 pm 14:53 Mostly Sunny 52 11.1 40 4.4 64 64 E 9 15 30.02 1017 10 16.0934 N/A
3:53 pm 15:53 Sunny 52 11.1 40 4.4 64 64 E 9 15 29.98 1015 10 16.0934 N/A
4:53 pm 16:53 Cloudy 52 11.1 40 4.4 64 64 E 9 15 29.98 1015 10 16.0934 N/A
5:53 pm 17:53 Cloudy 51 10.6 41 5 69 69 NE 12 19 29.96 1015 10 16.0934 N/A
6:53 pm 18:53 Cloudy 51 10.6 40 4.4 66 66 NE 12 19 29.95 1014 10 16.0934 N/A
7:53 pm 19:53 Cloudy with Light Rain 50 10 40 4.4 68 68 NNE 13 20 29.95 1014 10 16.0934 0.001 0.001
8:53 pm 20:53 Cloudy with Light Rain 47 8.3 40 4.4 77 77 NNE 8 13 29.96 1015 8 12.87472 0.02 0.508
9:53 pm 21:53 Cloudy with Light Rain 46 7.8 40 4.4 79 79 NE 7 11 29.94 1014 10 16.0934 0.001 0.001
10:53 pm 22:53 Cloudy 46 7.8 39 3.9 77 77 NNE 8 13 29.93 1014 9 14.48406 0.001 0.001
11:53 pm 23:53 Cloudy with Light Rain 44 6.7 39 3.9 83 83 ENE 6 9 29.91 1013 5 8.0467 0.05 1.27

Powered by AerisWeather